Location: Unspecified
(0.0000°N, 0.0000°E)
Time: 19:01:44
(UTC+01:00)

ISS - All Passes

Search period start: 06 December 2016 00:00
Search period end: 16 December 2016 00:00
Orbit: 401 x 410 km, 51.6° (Epoch: 06 December)

Date Brightness Start Highest point End Pass type
(mag) Time Alt. Az. Time Alt. Az. Time Alt. Az.
06 Dec - 03:13:02 10° WNW 03:15:49 25° SW 03:18:35 10° S night (unlit)
06 Dec - 14:46:47 10° SW 14:49:53 41° NW 14:52:59 10° NNE daylight
07 Dec - 02:20:39 10° NW 02:23:55 75° SW 02:27:12 10° SSE night (unlit)
07 Dec - 13:54:46 10° SSW 13:58:00 61° SE 14:01:12 10° NE daylight
08 Dec - 01:28:59 10° NNW 01:32:01 35° NE 01:35:03 10° ESE night (unlit)
08 Dec - 13:03:32 10° S 13:06:04 21° SE 13:08:38 10° ENE daylight
08 Dec - 14:41:24 10° WNW 14:42:23 11° NW 14:43:21 10° NW daylight
09 Dec - 00:38:20 10° NNE 00:40:06 14° NE 00:41:51 10° E night (unlit)
09 Dec - 02:14:05 10° W 02:16:23 18° SW 02:18:42 10° S night (unlit)
09 Dec - 13:47:36 10° WSW 13:50:26 27° NW 13:53:16 10° N daylight
10 Dec - 01:21:17 10° NW 01:24:27 47° SW 01:27:38 10° SSE night (unlit)
10 Dec - 12:55:16 10° SW 12:58:31 85° NW 13:01:45 10° NE daylight
11 Dec - 00:29:18 10° NNW 00:32:31 53° NE 00:35:44 10° SE night (unlit)
11 Dec - 12:03:39 10° S 12:06:34 30° SE 12:09:29 10° ENE daylight
11 Dec - 23:38:07 10° N 23:40:34 19° NE 23:43:01 10° ESE night (unlit)
12 Dec - 01:15:21 10° W 01:16:51 13° SW 01:18:22 10° SSW night (unlit)
12 Dec - 11:13:12 10° SSE 11:14:35 12° SE 11:15:58 10° E daylight
12 Dec - 12:48:28 10° WSW 12:50:53 19° NW 12:53:18 10° N daylight
13 Dec - 00:21:54 10° WNW 00:24:52 31° SW 00:27:50 10° S night (unlit)
13 Dec - 11:55:44 10° SW 11:58:55 54° NW 12:02:05 10° NNE daylight
13 Dec - 23:29:37 10° NNW 23:32:53 84° NE 23:36:11 10° SE night (unlit)
14 Dec - 11:03:48 10° SSW 11:06:56 46° SE 11:10:04 10° NE daylight
14 Dec - 22:38:02 10° N 22:40:54 27° NE 22:43:46 10° ESE night (unlit)
15 Dec - 10:12:42 10° S 10:14:56 17° SE 10:17:09 10° E daylight
15 Dec - 11:49:29 10° W 11:51:13 14° NW 11:52:56 10° NNW daylight
15 Dec - 21:47:54 10° NE 21:48:53 11° NE 21:49:52 10° ENE night (unlit)
15 Dec - 23:22:33 10° WNW 23:25:10 22° SW 23:27:48 10° S night (unlit)
